Location: Coopersdale
(40.3556°N, 78.9372°W)
Time: 00:36:41
(UTC+00:00)

Tiros 1 - Pass Details

Date: 26 January 2021
Orbit: 630 x 664 km, 48.4° (Epoch: 06 March)

Event Time Altitude Azimuth Distance (km) Brightness Sun altitude
Rises 00:52:23 0° 281° (W) 2,925 11.7 -27.8°
Reaches altitude 10° 00:54:56 10° 292° (WNW) 2,013 10.5 -28.3°
Enters shadow 00:58:02 28° 330° (NNW) 1,197 8.7 -28.9°
